This is the latest recevied weather packets stored in our database for station/object VK6WB. If no packets are shown the sender has not sent any weather packets the latest 10 day(s).
| Time | Temp. | Humidity | Pressure | Rain* | Wind** | Luminosity | Snow |
|---|---|---|---|---|---|---|---|
| 1777755004 | 9.44° C | 24% | 1021 hPa | 0 mm | - | 11 W/m² | - |
| 1777754403 | 10° C | 24% | 1021 hPa | 0 mm | - | 11 W/m² | - |
| 1777753803 | 10° C | 25% | 1021 hPa | 0 mm | - | 114 W/m² | - |
| 1777753209 | 10.56° C | 24% | 1021 hPa | 0 mm | - | 321 W/m² | - |
| 1777752603 | 10° C | 27% | 1020.9 hPa | 0 mm | - | 528 W/m² | - |
| 1777752004 | 9.44° C | 29% | 1021.1 hPa | 0 mm | - | 632 W/m² | - |
| 1777751404 | 9.44° C | 32% | 1020.9 hPa | 0 mm | - | 683 W/m² | - |
| 1777750805 | 9.44° C | 34% | 1021 hPa | 0 mm | - | 683 W/m² | - |
| 1777750206 | 8.89° C | 38% | 1021 hPa | 0 mm | - | 683 W/m² | - |
| 1777749605 | 8.89° C | 39% | 1021 hPa | 0 mm | - | 735 W/m² | - |
| 1777749005 | 8.89° C | 42% | 1021.1 hPa | 0 mm | - | 735 W/m² | - |
| 1777748405 | 8.89° C | 43% | 1021 hPa | 0 mm | - | 735 W/m² | - |
| 1777747805 | 9.44° C | 44% | 1021.1 hPa | 0 mm | - | 787 W/m² | - |
| 1777747206 | 9.44° C | 45% | 1021.1 hPa | 0 mm | - | 787 W/m² | - |
| 1777746605 | 9.44° C | 47% | 1021 hPa | 0 mm | - | 787 W/m² | - |
| 1777746005 | 10° C | 47% | 1021 hPa | 0 mm | - | 787 W/m² | - |
| 1777745405 | 10° C | 49% | 1021.1 hPa | 0 mm | - | 787 W/m² | - |
| 1777744805 | 10.56° C | 49% | 1021.2 hPa | 0 mm | - | 839 W/m² | - |
| 1777744205 | 10.56° C | 49% | 1021 hPa | 0 mm | - | 839 W/m² | - |
| 1777743605 | 11.11° C | 50% | 1021.2 hPa | 0 mm | - | 839 W/m² | - |
| 1777743006 | 11.11° C | 50% | 1021.1 hPa | 0 mm | - | 890 W/m² | - |
| 1777742405 | 11.11° C | 51% | 1021 hPa | 0 mm | - | 890 W/m² | - |
| 1777741806 | 11.11° C | 52% | 1021 hPa | 0 mm | - | 891 W/m² | - |
| 1777741205 | 11.11° C | 53% | 1021.2 hPa | 0 mm | - | 942 W/m² | - |
| 1777740605 | 11.11° C | 55% | 1021 hPa | 0 mm | - | 942 W/m² | - |
* Rain latest hour (hover to see other rain measurements)
** Current wind speed in m/s (hover to see current wind gust speed)